カタログに戻る

USA 570

運用中軍事LEO
NORAD 66992·PAYLOAD·🇺🇸 United States

打ち上げ Dec 9, 2025 から Cape Canaveral Space Force Station

Loading…

次のパス (今後24時間)

TLE

古いSource: Mike McCants

元期: Sep 7, 2026, 00:24 UTC

1 66992U 25291A   26250.01684479 0.00000000  00000-0  00000-0 0    08
2 66992  63.4418 302.4218 0108000 180.8117 179.1883 13.41005412    03

AllMySatでUSA 570をリアルタイム追跡

Download on the App Store